User: anonymous   Login
Location: Unspecified
(0.0000°N, 0.0000°E)
Time: 23:50:31
(UTC+00:00)
Language:

FUSE - Orbit

View from above orbital plane
View from above orbital plane
View from above satellite
View from above satellite

Ground track
Ground track

The orbit data is extracted from the following two-line orbital elements,

1 25791U 99035A   18294.34808399  .00000238  00000-0  16842-4 0  9996
2 25791  24.9846 266.8108 0010424 162.1927 197.8947 14.42765433 19665
Epoch (UTC): 21 October 2018 08:21:14
Eccentricity: 0.0010424
inclination: 24.9846°
perigee height: 742 km
apogee height: 757 km
right ascension of ascending node: 266.8108°
argument of perigee: 162.1927°
revolutions per day: 14.42765433
mean anomaly at epoch: 197.8947°
orbit number at epoch: 1966

The dashed part of the orbit path shows where the satellite is in the earth's shadow,  

DLR